Location: Byszew
(52.1813°N, 19.2693°E)
Time: 18:41:16
(UTC+00:00)

AIST 2D - Pass Details

Date: 01 July 2022
Orbit: 433 x 444 km, 97.0° (Epoch: 07 August)

Event Time Altitude Azimuth Distance (km) Brightness Sun altitude
Rises 20:42:42 0° 10° (N) 2,429 ? -10.0°
Reaches altitude 10° 20:44:45 10° 7° (N) 1,555 ? -10.2°
Maximum altitude 20:48:02 62° 286° (WNW) 499 ? -10.4°
Drops below altitude 10° 20:51:18 10° 206° (SSW) 1,546 ? -10.6°
Enters shadow 20:52:05 - 204° (SSW) 1,877 ? -10.7°
